Retour au catalogue

STARLINK-34563

ActifCommunicationsVLEO
NORAD 64708·PAYLOAD·🇺🇸 United States

Lancé Jun 28, 2025 depuis Vandenberg Space Force Base

Loading…

Prochains Passages (prochaines 24 heures)

TLE

FraisSource: CelesTrak SupGP

Époque: Sep 15, 2026, 02:22 UTC

1 64708C 25142N   26258.09909722 -.00039415  00000+0 -13714-2 0  2589
2 64708  70.0013 195.1595 0002895 272.7292 164.7851 15.29593983    15

Suivez STARLINK-34563 en temps réel avec AllMySat

Download on the App Store